Weather History for Rifle, CO

Change the Weather History Date:

Friday, July 26, 2013

  Actual Average Record
Temperature  
Mean Temperature 76 °F 73 °F  
Max Temperature 95 °F 91 °F 104 °F (1929)
Min Temperature 56 °F 56 °F 43 °F (1973)
Degree Days  
Heating Degree Days 0 0  
Month to date heating degree days 0 0  
Since 1 June heating degree days 13 59  
Since 1 July heating degree days 0 0  
Cooling Degree Days 11 8  
Month to date cooling degree days 303 196  
Year to date cooling degree days 461 298  
Since 1 June cooling degree days 454 291  
Growing Degree Days 24 (Base 50)    
Moisture  
Dew Point 41 °F    
Average Humidity 42    
Maximum Humidity 72    
Minimum Humidity 12    
Precipitation  
Precipitation 0.00 in 0.06 in 0.53 in (2006)
Month to date precipitation 0.54 0.85  
Year to date precipitation 4.53 7.29  
Sea Level Pressure  
Sea Level Pressure 30.01 in    
Wind  
Wind Speed 4 mph (East)    
Max Wind Speed 18 mph    
Max Gust Speed 26 mph    
Visibility 10 miles    
Events      
T = Trace of Precipitation, MM = Missing Value Source: NWS Daily Summary

Daily Weather History Graph

Daily Weather History Graph

Search for Another Location

Airport:

Trip Planner

Search our weather history database for the weather conditions in past years. The results will help you decide how hot, cold, wet, or windy it might be!

Date:

Astronomy

Jul. 26, 2013 Rise Set
Actual Time 6:05 AM MDT 8:28 PM MDT
Civil Twilight 5:34 AM MDT 8:59 PM MDT
Nautical Twilight 4:56 AM MDT 9:37 PM MDT
Astronomical Twilight 4:15 AM MDT 10:18 PM MDT
Moon 10:46 PM MDT (7/26) 10:43 AM MDT (7/26)
Length of Visible Light 15h 24m
Length of Day
14h 23m
Waning Gibbous, 79% of the Moon is Illuminated
Jul 26
Waning Gibbous
Jul 29
Last Quarter
Aug 6
New
Aug 14
First Quarter
Aug 20
Full

Hourly Weather History & Observations

Time (MDT) Temp. Dew Point Humidity Pressure Visibility Wind Dir Wind Speed Gust Speed Precip Events Conditions
12:53 AM 64.9 °F 48.9 °F 56% 30.03 in 10.0 mi ESE 4.6 mph - N/A   Clear
1:53 AM 64.9 °F 48.0 °F 54% 30.05 in 10.0 mi Calm Calm - N/A   Clear
2:53 AM 60.1 °F 46.9 °F 62% 30.05 in 10.0 mi ESE 4.6 mph - N/A   Clear
3:53 AM 59.0 °F 46.9 °F 64% 30.07 in 10.0 mi Calm Calm - N/A   Clear
4:53 AM 57.9 °F 46.9 °F 67% 30.08 in 10.0 mi ESE 4.6 mph - N/A   Clear
5:53 AM 55.9 °F 46.9 °F 72% 30.12 in 10.0 mi SE 5.8 mph - N/A   Clear
6:53 AM 57.9 °F 48.0 °F 70% 30.12 in 10.0 mi Calm Calm - N/A   Clear
7:53 AM 64.9 °F 46.9 °F 52% 30.11 in 10.0 mi East 4.6 mph - N/A   Clear
8:53 AM 68.0 °F 46.9 °F 47% 30.12 in 10.0 mi East 4.6 mph - N/A   Clear
9:53 AM 73.9 °F 48.0 °F 40% 30.09 in 10.0 mi ENE 8.1 mph - N/A   Clear
10:53 AM 80.1 °F 46.9 °F 31% 30.07 in 10.0 mi NNE 4.6 mph - N/A   Clear
11:53 AM 84.0 °F 44.1 °F 25% 30.05 in 10.0 mi North 5.8 mph - N/A   Clear
12:53 PM 88.0 °F 37.9 °F 17% 30.01 in 10.0 mi Calm Calm - N/A   Clear
1:53 PM 90.0 °F 36.0 °F 15% 29.98 in 10.0 mi Variable 5.8 mph - N/A   Clear
2:53 PM 91.0 °F 35.1 °F 14% 29.97 in 10.0 mi Variable 4.6 mph - N/A   Clear
3:53 PM 91.9 °F 32.0 °F 12% 29.94 in 10.0 mi Variable 3.5 mph - N/A   Clear
4:53 PM 91.9 °F 32.0 °F 12% 29.92 in 10.0 mi Variable 3.5 mph 16.1 mph N/A   Clear
5:53 PM 93.0 °F 33.1 °F 12% 29.91 in 10.0 mi NW 9.2 mph - N/A   Clear
6:53 PM 91.9 °F 33.1 °F 12% 29.90 in 10.0 mi NW 8.1 mph - N/A   Clear
7:53 PM 88.0 °F 35.1 °F 15% 29.88 in 10.0 mi NNW 3.5 mph - N/A   Clear
8:53 PM 84.9 °F 33.1 °F 16% 29.89 in 10.0 mi Variable 3.5 mph - N/A   Clear
9:53 PM 75.0 °F 35.1 °F 23% 29.93 in 10.0 mi ESE 8.1 mph - N/A   Clear
10:53 PM 73.0 °F 35.1 °F 25% 29.93 in 10.0 mi Variable 4.6 mph - N/A   Clear
11:53 PM 71.1 °F 35.1 °F 27% 29.93 in 10.0 mi ESE 9.2 mph - N/A   Clear